Time,TemperatureF,DewpointF,PressureIn,WindDirection,WindDirectionDegrees,WindSpeedMPH,WindSpeedGustMPH,Humidity,HourlyPrecipIn,Conditions,Clouds,dailyrainin,SoftwareType,DateUTC
2013-07-19 00:00:00,73.6,66.7,30.74,North,0,0.0,0.0,79,0.00,,FEW050,0.00,VWS V14.00,2013-07-19 04:00:00,
2013-07-19 00:15:00,73.0,67.2,31.74,North,0,0.0,0.0,82,0.00,,FEW050,0.00,VWS V14.00,2013-07-19 04:15:00,
2013-07-19 00:30:00,73.0,67.2,30.74,North,0,0.0,0.0,82,0.00,,FEW050,0.00,VWS V14.00,2013-07-19 04:30:00,
2013-07-19 00:45:00,73.0,67.2,28.85,North,0,0.0,0.0,82,0.00,,FEW050,0.00,VWS V14.00,2013-07-19 04:45:00,
2013-07-19 01:00:00,72.9,67.1,28.85,North,0,0.0,0.0,82,0.00,,CLR,0.00,VWS V14.00,2013-07-19 05:00:00,
2013-07-19 01:15:00,72.9,67.1,26.96,North,0,0.0,0.0,82,0.00,,CLR,0.00,VWS V14.00,2013-07-19 05:15:00,
2013-07-19 01:30:00,72.5,66.7,30.74,North,0,0.0,0.0,82,0.00,,CLR,0.00,VWS V14.00,2013-07-19 05:30:00,
2013-07-19 01:45:00,72.5,66.7,28.85,North,0,0.0,0.0,82,0.00,,CLR,0.00,VWS V14.00,2013-07-19 05:45:00,
2013-07-19 02:00:00,72.3,66.9,30.74,North,0,0.0,0.0,83,0.00,,CLR,0.00,VWS V14.00,2013-07-19 06:00:00,
2013-07-19 02:15:00,72.1,66.7,26.96,North,0,0.0,0.0,83,0.00,,CLR,0.00,VWS V14.00,2013-07-19 06:15:00,
2013-07-19 02:30:00,72.1,66.7,28.85,North,0,0.0,0.0,83,0.00,,CLR,0.00,VWS V14.00,2013-07-19 06:30:00,
2013-07-19 02:44:00,72.1,66.7,26.96,North,0,0.0,0.0,83,0.00,,CLR,0.00,VWS V14.00,2013-07-19 06:44:00,
2013-07-19 02:59:00,71.8,66.7,26.96,North,0,0.0,0.0,84,0.00,,CLR,0.00,VWS V14.00,2013-07-19 06:59:00,
2013-07-19 03:14:00,71.8,66.7,28.85,North,0,0.0,0.0,84,0.00,,CLR,0.00,VWS V14.00,2013-07-19 07:14:00,
2013-07-19 03:30:00,71.6,66.5,26.96,North,0,0.0,0.0,84,0.00,,CLR,0.00,VWS V14.00,2013-07-19 07:30:00,
2013-07-19 03:44:00,71.4,66.3,26.96,North,0,0.0,0.0,84,0.00,,CLR,0.00,VWS V14.00,2013-07-19 07:44:00,
2013-07-19 03:59:00,71.4,66.7,26.96,North,0,0.0,0.0,85,0.00,,,0.00,VWS V14.00,2013-07-19 07:59:00,
2013-07-19 04:14:00,71.4,66.7,26.96,North,0,0.0,0.0,85,0.00,,,0.00,VWS V14.00,2013-07-19 08:14:00,
2013-07-19 04:29:00,71.1,66.0,28.58,North,0,0.0,0.0,84,0.00,,,0.00,VWS V14.00,2013-07-19 08:29:00,
2013-07-19 04:44:00,70.9,66.2,26.96,North,0,0.0,0.0,85,0.00,,,0.00,VWS V14.00,2013-07-19 08:44:00,
2013-07-19 04:59:00,71.1,66.3,26.96,North,0,0.0,0.0,85,0.00,,,0.00,VWS V14.00,2013-07-19 08:59:00,
2013-07-19 05:14:00,71.1,66.3,26.93,North,0,0.0,0.0,85,0.00,,,0.00,VWS V14.00,2013-07-19 09:14:00,
2013-07-19 05:29:00,70.7,66.0,26.93,North,0,0.0,0.0,85,0.00,,,0.00,VWS V14.00,2013-07-19 09:29:00,
2013-07-19 05:44:00,70.7,66.0,26.93,North,0,0.0,0.0,85,0.00,,,0.00,VWS V14.00,2013-07-19 09:44:00,
2013-07-19 05:59:00,70.5,65.8,26.96,North,0,0.0,0.0,85,0.00,,,0.00,VWS V14.00,2013-07-19 09:59:00,
2013-07-19 06:14:00,70.7,66.0,26.96,North,0,0.0,0.0,85,0.00,,,0.00,VWS V14.00,2013-07-19 10:14:00,
2013-07-19 06:29:00,70.7,66.0,26.93,North,0,0.0,0.0,85,0.00,,,0.00,VWS V14.00,2013-07-19 10:29:00,
2013-07-19 06:44:00,71.1,66.7,26.90,North,0,0.0,0.0,86,0.00,,,0.00,VWS V14.00,2013-07-19 10:44:00,
2013-07-19 06:59:00,71.6,66.9,26.90,North,0,0.0,0.0,85,0.00,,,0.00,VWS V14.00,2013-07-19 10:59:00,
2013-07-19 07:14:00,72.5,68.1,26.90,North,0,0.0,0.0,86,0.00,,,0.00,VWS V14.00,2013-07-19 11:14:00,
2013-07-19 07:29:00,73.2,68.4,26.81,North,0,0.0,0.0,85,0.00,,,0.00,VWS V14.00,2013-07-19 11:29:00,
2013-07-19 07:44:00,74.7,69.9,26.28,North,0,0.0,0.0,85,0.00,,,0.00,VWS V14.00,2013-07-19 11:44:00,
2013-07-19 07:59:00,75.7,70.9,26.81,North,0,0.0,0.0,85,0.00,,,0.00,VWS V14.00,2013-07-19 11:59:00,
2013-07-19 08:14:00,77.2,71.6,26.72,North,0,0.0,0.0,83,0.00,,,0.00,VWS V14.00,2013-07-19 12:14:00,
2013-07-19 08:29:00,78.1,71.0,26.43,North,0,0.0,0.0,79,0.00,,,0.00,VWS V14.00,2013-07-19 12:29:00,
2013-07-19 08:44:00,80.1,72.2,26.69,North,0,0.0,0.0,77,0.00,,,0.00,VWS V14.00,2013-07-19 12:44:00,
2013-07-19 09:00:00,81.7,70.5,26.93,North,0,0.0,0.0,69,0.00,,,0.00,VWS V14.00,2013-07-19 13:00:00,
2013-07-19 09:14:00,83.5,70.9,26.96,North,0,0.0,0.0,66,0.00,,CLR,0.00,VWS V14.00,2013-07-19 13:14:00,
2013-07-19 09:29:00,86.0,67.4,26.43,North,0,0.0,0.0,54,0.00,,CLR,0.00,VWS V14.00,2013-07-19 13:29:00,
2013-07-19 09:45:00,87.3,60.0,25.98,North,0,0.0,0.0,40,0.00,,CLR,0.00,VWS V14.00,2013-07-19 13:45:00,
2013-07-19 09:59:00,87.8,51.6,24.21,North,0,0.0,0.0,29,0.00,,CLR,0.00,VWS V14.00,2013-07-19 13:59:00,
2013-07-19 10:14:00,88.9,52.5,25.01,North,0,0.0,0.0,29,0.00,,CLR,0.00,VWS V14.00,2013-07-19 14:14:00,
2013-07-19 10:30:00,89.4,47.9,26.31,North,0,0.0,0.0,24,0.00,,CLR,0.00,VWS V14.00,2013-07-19 14:30:00,
2013-07-19 10:45:00,90.3,45.1,26.01,North,0,0.0,0.0,21,0.00,,CLR,0.00,VWS V14.00,2013-07-19 14:45:00,
2013-07-19 11:00:00,91.4,43.4,26.25,North,0,0.0,0.0,19,0.00,,CLR,0.00,VWS V14.00,2013-07-19 15:00:00,
2013-07-19 11:15:00,91.8,43.7,26.49,North,0,0.0,0.0,19,0.00,,CLR,0.00,VWS V14.00,2013-07-19 15:15:00,
2013-07-19 11:30:00,91.9,42.4,24.63,North,0,0.0,0.0,18,0.00,,CLR,0.00,VWS V14.00,2013-07-19 15:30:00,
2013-07-19 11:45:00,92.7,43.0,26.28,North,0,0.0,0.0,18,0.00,,CLR,0.00,VWS V14.00,2013-07-19 15:45:00,
2013-07-19 12:00:00,93.6,42.2,24.83,North,0,0.0,0.0,17,0.00,,CLR,0.00,VWS V14.00,2013-07-19 16:00:00,
2013-07-19 12:15:00,94.6,43.1,24.86,North,0,0.0,0.0,17,0.00,,CLR,0.00,VWS V14.00,2013-07-19 16:15:00,
2013-07-19 12:30:00,95.0,41.8,24.21,North,0,0.0,0.0,16,0.00,,CLR,0.00,VWS V14.00,2013-07-19 16:30:00,
2013-07-19 12:45:00,94.6,41.5,24.63,North,0,0.0,0.0,16,0.00,,BKN046,0.00,VWS V14.00,2013-07-19 16:45:00,
2013-07-19 13:00:00,95.9,42.5,24.21,North,0,0.0,0.0,16,0.00,,BKN046,0.00,VWS V14.00,2013-07-19 17:00:00,
2013-07-19 13:15:00,94.8,38.2,24.21,North,0,0.0,0.0,14,0.00,,BKN046,0.00,VWS V14.00,2013-07-19 17:15:00,
2013-07-19 13:44:00,97.0,38.0,25.81,North,0,0.0,0.0,13,0.00,,FEW043,0.00,VWS V14.00,2013-07-19 17:44:00,
2013-07-19 13:59:00,97.9,38.8,25.72,North,0,0.0,0.0,13,0.00,,FEW043,0.00,VWS V14.00,2013-07-19 17:59:00,
2013-07-19 14:14:00,97.7,38.6,25.48,North,0,0.0,0.0,13,0.00,,FEW043,0.00,VWS V14.00,2013-07-19 18:14:00,
2013-07-19 14:29:00,98.4,34.9,24.21,North,0,0.0,0.0,11,0.00,,FEW043,0.00,VWS V14.00,2013-07-19 18:29:00,
2013-07-19 14:44:00,99.3,33.2,26.69,North,0,0.0,0.0,10,0.00,,FEW043,0.00,VWS V14.00,2013-07-19 18:44:00,
2013-07-19 14:59:00,98.2,34.8,25.89,North,0,0.0,0.0,11,0.00,,SCT060,0.00,VWS V14.00,2013-07-19 18:59:00,
2013-07-19 15:14:00,99.3,33.2,24.48,North,0,0.0,0.0,10,0.00,,SCT060,0.00,VWS V14.00,2013-07-19 19:14:00,
2013-07-19 15:29:00,98.8,32.8,25.92,North,0,0.0,0.0,10,0.00,,SCT060,0.00,VWS V14.00,2013-07-19 19:29:00,
2013-07-19 15:44:00,99.3,33.2,26.46,North,0,0.0,0.0,10,0.00,,SCT060,0.00,VWS V14.00,2013-07-19 19:44:00,
2013-07-19 15:59:00,99.7,33.5,24.21,North,0,0.0,0.0,10,0.00,,FEW050,0.00,VWS V14.00,2013-07-19 19:59:00,
2013-07-19 16:14:00,99.0,33.0,25.39,North,0,0.0,0.0,10,0.00,,FEW050,0.00,VWS V14.00,2013-07-19 20:14:00,
2013-07-19 16:30:00,99.1,33.1,24.21,North,0,0.0,0.0,10,0.00,,FEW050,0.00,VWS V14.00,2013-07-19 20:30:00,
2013-07-19 16:44:00,99.9,33.6,24.21,North,0,0.0,0.0,10,0.00,,FEW050,0.00,VWS V14.00,2013-07-19 20:44:00,
2013-07-19 16:59:00,99.5,33.4,24.74,North,0,0.0,0.0,10,0.00,,CLR,0.00,VWS V14.00,2013-07-19 20:59:00,
2013-07-19 17:14:00,98.6,32.7,24.21,North,0,0.0,0.0,10,0.00,,CLR,0.00,VWS V14.00,2013-07-19 21:14:00,
2013-07-19 17:29:00,99.5,33.4,26.93,North,0,0.0,0.0,10,0.00,,CLR,0.00,VWS V14.00,2013-07-19 21:29:00,
2013-07-19 17:44:00,97.3,34.1,25.57,North,0,0.0,0.0,11,0.00,,CLR,0.00,VWS V14.00,2013-07-19 21:44:00,
2013-07-19 17:59:00,98.1,38.9,26.16,North,0,0.0,0.0,13,0.00,,CLR,0.00,VWS V14.00,2013-07-19 21:59:00,
2013-07-19 18:14:00,97.0,38.0,24.33,North,0,0.0,0.0,13,0.00,,CLR,0.00,VWS V14.00,2013-07-19 22:14:00,
2013-07-19 18:29:00,95.0,38.4,26.90,North,0,0.0,0.0,14,0.00,,CLR,0.00,VWS V14.00,2013-07-19 22:29:00,
2013-07-19 18:44:00,94.1,37.7,24.24,North,0,0.0,0.0,14,0.00,,CLR,0.00,VWS V14.00,2013-07-19 22:44:00,
2013-07-19 18:59:00,93.4,37.1,24.68,North,0,0.0,0.0,14,0.00,,FEW060,0.00,VWS V14.00,2013-07-19 22:59:00,
2013-07-19 19:14:00,93.2,40.4,26.84,North,0,0.0,0.0,16,0.00,,FEW060,0.00,VWS V14.00,2013-07-19 23:14:00,
2013-07-19 19:29:00,90.9,41.5,26.04,North,0,0.0,0.0,18,0.00,,FEW060,0.00,VWS V14.00,2013-07-19 23:29:00,
2013-07-19 19:44:00,89.8,40.7,25.01,North,0,0.0,0.0,18,0.00,,FEW060,0.00,VWS V14.00,2013-07-19 23:44:00,
2013-07-19 19:59:00,89.4,40.4,25.16,North,0,0.0,0.0,18,0.00,,FEW060,0.00,VWS V14.00,2013-07-19 23:59:00,
2013-07-19 20:14:00,88.3,40.9,24.21,North,0,0.0,0.0,19,0.00,,FEW060,0.00,VWS V14.00,2013-07-20 00:14:00,
2013-07-19 20:29:00,88.0,40.6,25.01,North,0,0.0,0.0,19,0.00,,CLR,0.00,VWS V14.00,2013-07-20 00:29:00,
2013-07-19 20:44:00,87.3,40.0,24.51,North,0,0.0,0.0,19,0.00,,CLR,0.00,VWS V14.00,2013-07-20 00:44:00,
2013-07-19 20:59:00,85.5,42.3,24.21,North,0,0.0,0.0,22,0.00,,CLR,0.00,VWS V14.00,2013-07-20 00:59:00,
2013-07-19 21:14:00,85.3,43.3,24.21,North,0,0.0,0.0,23,0.00,,CLR,0.00,VWS V14.00,2013-07-20 01:14:00,
2013-07-19 21:29:00,85.1,43.2,26.78,North,0,0.0,0.0,23,0.00,,CLR,0.00,VWS V14.00,2013-07-20 01:29:00,
2013-07-19 21:44:00,84.4,43.7,25.16,North,0,0.0,0.0,24,0.00,,CLR,0.00,VWS V14.00,2013-07-20 01:44:00,
2013-07-19 21:59:00,83.3,45.9,24.21,North,0,0.0,0.0,27,0.00,,CLR,0.00,VWS V14.00,2013-07-20 01:59:00,
2013-07-19 22:14:00,82.6,47.1,24.21,North,0,0.0,0.0,29,0.00,,CLR,0.00,VWS V14.00,2013-07-20 02:14:00,
2013-07-19 22:29:00,82.0,48.5,24.36,North,0,0.0,0.0,31,0.00,,CLR,0.00,VWS V14.00,2013-07-20 02:29:00,
2013-07-19 22:44:00,81.1,50.1,24.33,North,0,0.0,0.0,34,0.00,,CLR,0.00,VWS V14.00,2013-07-20 02:44:00,
2013-07-19 22:59:00,81.0,51.5,24.92,North,0,0.0,0.0,36,0.00,,CLR,0.00,VWS V14.00,2013-07-20 02:59:00,
2013-07-19 23:14:00,80.2,55.7,24.21,North,0,0.0,0.0,43,0.00,,CLR,0.00,VWS V14.00,2013-07-20 03:14:00,
2013-07-19 23:29:00,80.2,58.2,24.21,North,0,0.0,0.0,47,0.00,,CLR,0.00,VWS V14.00,2013-07-20 03:29:00,
2013-07-19 23:44:00,80.8,56.9,24.21,North,0,0.0,0.0,44,0.00,,CLR,0.00,VWS V14.00,2013-07-20 03:44:00,
2013-07-19 23:59:00,80.8,53.5,24.21,North,0,0.0,0.0,39,0.00,,CLR,0.00,VWS V14.00,2013-07-20 03:59:00,